Time,TemperatureF,DewpointF,PressureIn,WindDirection,WindDirectionDegrees,WindSpeedMPH,WindSpeedGustMPH,Humidity,HourlyPrecipIn,Conditions,Clouds,dailyrainin,SolarRadiationWatts/m^2,SoftwareType,DateUTC
2013-04-04 00:00:00,51.7,45.7,29.97,North,360,1.0,2.0,80,0.00,,,0.00,0,Wunderground v.1.15,2013-04-04 07:00:00,
2013-04-04 00:05:00,51.8,45.8,29.97,North,360,0.0,2.0,80,0.00,,,0.00,0,Wunderground v.1.15,2013-04-04 07:05:00,
2013-04-04 00:10:00,51.8,45.8,29.97,North,360,0.0,0.0,80,0.00,,,0.00,0,Wunderground v.1.15,2013-04-04 07:10:00,
2013-04-04 00:15:00,51.9,46.3,29.97,North,360,1.0,1.0,81,0.00,,,0.00,0,Wunderground v.1.15,2013-04-04 07:15:00,
2013-04-04 00:20:00,51.8,45.8,29.97,North,360,0.0,0.0,80,0.00,,,0.00,0,Wunderground v.1.15,2013-04-04 07:20:00,
2013-04-04 00:25:00,51.8,46.2,29.96,North,360,0.0,1.0,81,0.00,,,0.00,0,Wunderground v.1.15,2013-04-04 07:25:00,
2013-04-04 00:30:00,51.8,45.8,29.96,North,5,0.0,0.0,80,0.00,,,0.00,0,Wunderground v.1.15,2013-04-04 07:30:00,
2013-04-04 00:35:00,51.8,46.2,29.96,North,5,0.0,2.0,81,0.00,,,0.00,0,Wunderground v.1.15,2013-04-04 07:35:00,
2013-04-04 00:40:00,51.9,45.9,29.96,North,5,0.0,0.0,80,0.00,,,0.00,0,Wunderground v.1.15,2013-04-04 07:40:00,
2013-04-04 00:45:00,51.8,46.2,29.96,North,5,0.0,2.0,81,0.00,,,0.00,0,Wunderground v.1.15,2013-04-04 07:45:00,
2013-04-04 00:50:00,51.7,46.1,29.95,North,5,0.0,0.0,81,0.00,,,0.00,0,Wunderground v.1.15,2013-04-04 07:50:00,
2013-04-04 00:55:00,51.7,46.1,29.95,North,5,0.0,1.0,81,0.00,,,0.00,0,Wunderground v.1.15,2013-04-04 07:55:00,
2013-04-04 01:00:00,51.7,46.1,29.95,North,360,1.0,3.0,81,0.00,,,0.00,0,Wunderground v.1.15,2013-04-04 08:00:00,
2013-04-04 01:05:00,51.7,46.1,29.95,North,360,2.0,3.0,81,0.00,,,0.00,0,Wunderground v.1.15,2013-04-04 08:05:00,
2013-04-04 01:10:00,51.7,46.1,29.95,North,360,0.0,1.0,81,0.00,,,0.00,0,Wunderground v.1.15,2013-04-04 08:10:00,
2013-04-04 01:15:00,51.7,46.1,29.95,North,360,0.0,1.0,81,0.00,,,0.00,0,Wunderground v.1.15,2013-04-04 08:15:00,
2013-04-04 01:20:00,51.7,46.1,29.95,North,360,0.0,0.0,81,0.00,,,0.00,0,Wunderground v.1.15,2013-04-04 08:20:00,
2013-04-04 01:25:00,51.6,46.0,29.95,North,360,0.0,1.0,81,0.00,,,0.00,0,Wunderground v.1.15,2013-04-04 08:25:00,
2013-04-04 01:30:00,51.7,46.1,29.95,North,360,0.0,0.0,81,0.00,,,0.00,0,Wunderground v.1.15,2013-04-04 08:30:00,
2013-04-04 01:35:00,51.7,45.7,29.95,North,360,0.0,0.0,80,0.00,,,0.00,0,Wunderground v.1.15,2013-04-04 08:35:00,
2013-04-04 01:40:00,51.6,45.6,29.94,North,360,2.0,2.0,80,0.00,,,0.00,0,Wunderground v.1.15,2013-04-04 08:40:00,
2013-04-04 01:45:00,51.6,45.6,29.94,North,360,0.0,2.0,80,0.00,,,0.00,0,Wunderground v.1.15,2013-04-04 08:45:00,
2013-04-04 01:50:00,51.4,45.8,29.94,North,360,0.0,0.0,81,0.00,,,0.00,0,Wunderground v.1.15,2013-04-04 08:50:00,
2013-04-04 01:55:00,51.4,45.8,29.94,North,360,0.0,2.0,81,0.00,,,0.00,0,Wunderground v.1.15,2013-04-04 08:55:00,
2013-04-04 02:00:00,51.3,45.7,29.94,North,360,1.0,2.0,81,0.00,,,0.00,0,Wunderground v.1.15,2013-04-04 09:00:00,
2013-04-04 02:05:00,51.2,45.6,29.94,North,360,0.0,2.0,81,0.00,,,0.00,0,Wunderground v.1.15,2013-04-04 09:05:00,
2013-04-04 02:10:00,51.1,45.5,29.93,North,360,1.0,2.0,81,0.00,,,0.00,0,Wunderground v.1.15,2013-04-04 09:10:00,
2013-04-04 02:15:00,51.0,45.4,29.93,North,360,0.0,2.0,81,0.00,,,0.00,0,Wunderground v.1.15,2013-04-04 09:15:00,
2013-04-04 02:20:00,51.0,45.7,29.93,North,360,1.0,1.0,82,0.00,,,0.00,0,Wunderground v.1.15,2013-04-04 09:20:00,
2013-04-04 02:25:00,50.9,45.6,29.93,North,360,1.0,2.0,82,0.00,,,0.00,0,Wunderground v.1.15,2013-04-04 09:25:00,
2013-04-04 02:30:00,50.7,45.4,29.92,North,360,0.0,1.0,82,0.00,,,0.00,0,Wunderground v.1.15,2013-04-04 09:30:00,
2013-04-04 02:35:00,50.6,45.3,29.92,North,360,0.0,1.0,82,0.00,,,0.00,0,Wunderground v.1.15,2013-04-04 09:35:00,
2013-04-04 02:40:00,50.7,45.4,29.92,North,360,0.0,0.0,82,0.00,,,0.00,0,Wunderground v.1.15,2013-04-04 09:40:00,
2013-04-04 02:45:00,50.7,45.4,29.92,North,360,0.0,0.0,82,0.00,,,0.00,0,Wunderground v.1.15,2013-04-04 09:45:00,
2013-04-04 02:50:00,50.7,45.4,29.92,North,360,0.0,0.0,82,0.00,,,0.00,0,Wunderground v.1.15,2013-04-04 09:50:00,
2013-04-04 02:56:00,50.7,45.4,29.92,North,360,1.0,1.0,82,0.00,,,0.00,0,Wunderground v.1.15,2013-04-04 09:56:00,
2013-04-04 03:01:00,50.8,45.5,29.92,North,360,1.0,1.0,82,0.00,,,0.00,0,Wunderground v.1.15,2013-04-04 10:01:00,
2013-04-04 03:06:00,50.8,45.5,29.92,North,360,1.0,2.0,82,0.00,,,0.00,0,Wunderground v.1.15,2013-04-04 10:06:00,
2013-04-04 03:11:00,50.6,45.3,29.91,North,360,0.0,1.0,82,0.00,,,0.00,0,Wunderground v.1.15,2013-04-04 10:11:00,
2013-04-04 03:16:00,50.5,45.5,29.91,North,360,1.0,2.0,83,0.00,,,0.00,0,Wunderground v.1.15,2013-04-04 10:16:00,
2013-04-04 03:21:00,50.5,45.5,29.91,North,360,0.0,0.0,83,0.00,,,0.00,0,Wunderground v.1.15,2013-04-04 10:21:00,
2013-04-04 03:26:00,50.4,45.4,29.91,North,360,0.0,1.0,83,0.00,,,0.00,0,Wunderground v.1.15,2013-04-04 10:26:00,
2013-04-04 03:31:00,50.3,45.6,29.91,North,360,0.0,0.0,84,0.00,,,0.00,0,Wunderground v.1.15,2013-04-04 10:31:00,
2013-04-04 03:36:00,50.3,45.6,29.90,North,360,0.0,0.0,84,0.00,,,0.00,0,Wunderground v.1.15,2013-04-04 10:36:00,
2013-04-04 03:41:00,50.3,45.6,29.90,North,360,0.0,0.0,84,0.00,,,0.00,0,Wunderground v.1.15,2013-04-04 10:41:00,
2013-04-04 03:46:00,50.3,45.6,29.90,North,360,0.0,2.0,84,0.00,,,0.00,0,Wunderground v.1.15,2013-04-04 10:46:00,
2013-04-04 03:51:00,50.3,45.6,29.90,North,360,0.0,0.0,84,0.00,,,0.00,0,Wunderground v.1.15,2013-04-04 10:51:00,
2013-04-04 03:56:00,50.2,45.9,29.90,North,360,0.0,0.0,85,0.00,,,0.00,0,Wunderground v.1.15,2013-04-04 10:56:00,
2013-04-04 04:01:00,50.3,45.6,29.90,North,360,0.0,0.0,84,0.00,,,0.00,0,Wunderground v.1.15,2013-04-04 11:01:00,
2013-04-04 04:06:00,50.4,46.1,29.89,North,360,0.0,0.0,85,0.00,,,0.00,0,Wunderground v.1.15,2013-04-04 11:06:00,
2013-04-04 04:11:00,50.4,45.7,29.89,North,360,0.0,0.0,84,0.00,,,0.00,0,Wunderground v.1.15,2013-04-04 11:11:00,
2013-04-04 04:16:00,50.4,45.7,29.89,North,360,1.0,1.0,84,0.00,,,0.00,0,Wunderground v.1.15,2013-04-04 11:16:00,
2013-04-04 04:21:00,50.3,46.0,29.89,North,360,2.0,2.0,85,0.00,,,0.00,0,Wunderground v.1.15,2013-04-04 11:21:00,
2013-04-04 04:26:00,50.2,45.9,29.89,North,360,0.0,2.0,85,0.00,,,0.00,0,Wunderground v.1.15,2013-04-04 11:26:00,
2013-04-04 04:31:00,50.2,45.9,29.89,North,360,0.0,1.0,85,0.00,,,0.00,0,Wunderground v.1.15,2013-04-04 11:31:00,
2013-04-04 04:37:00,50.1,46.1,29.88,North,360,0.0,1.0,86,0.00,,,0.00,0,Wunderground v.1.15,2013-04-04 11:37:00,
2013-04-04 04:42:00,50.1,46.1,29.88,North,360,0.0,1.0,86,0.00,,,0.00,0,Wunderground v.1.15,2013-04-04 11:42:00,
2013-04-04 04:47:00,50.2,46.2,29.88,North,360,0.0,1.0,86,0.00,,,0.00,0,Wunderground v.1.15,2013-04-04 11:47:00,
2013-04-04 04:52:00,50.2,46.2,29.88,North,360,0.0,0.0,86,0.00,,,0.00,0,Wunderground v.1.15,2013-04-04 11:52:00,
2013-04-04 04:57:00,50.3,46.0,29.88,North,360,0.0,2.0,85,0.00,,,0.00,0,Wunderground v.1.15,2013-04-04 11:57:00,
2013-04-04 05:02:00,50.2,45.9,29.88,North,360,1.0,1.0,85,0.00,,,0.00,0,Wunderground v.1.15,2013-04-04 12:02:00,
2013-04-04 05:07:00,50.3,46.0,29.88,North,360,1.0,1.0,85,0.00,,,0.00,0,Wunderground v.1.15,2013-04-04 12:07:00,
2013-04-04 05:12:00,50.3,46.0,29.87,North,360,1.0,1.0,85,0.00,,,0.00,0,Wunderground v.1.15,2013-04-04 12:12:00,
2013-04-04 05:17:00,50.3,46.0,29.87,North,360,0.0,2.0,85,0.00,,,0.00,0,Wunderground v.1.15,2013-04-04 12:17:00,
2013-04-04 05:22:00,50.3,45.6,29.87,North,360,1.0,1.0,84,0.00,,,0.00,0,Wunderground v.1.15,2013-04-04 12:22:00,
2013-04-04 05:27:00,50.4,45.7,29.86,North,360,0.0,2.0,84,0.00,,,0.00,0,Wunderground v.1.15,2013-04-04 12:27:00,
2013-04-04 05:32:00,50.4,45.7,29.86,North,360,0.0,1.0,84,0.00,,,0.00,0,Wunderground v.1.15,2013-04-04 12:32:00,
2013-04-04 05:37:00,50.4,45.7,29.85,NE,52,2.0,4.0,84,0.00,,,0.00,0,Wunderground v.1.15,2013-04-04 12:37:00,
2013-04-04 05:42:00,50.4,46.1,29.86,West,264,2.0,5.0,85,0.00,,,0.00,0,Wunderground v.1.15,2013-04-04 12:42:00,
2013-04-04 05:47:00,50.5,45.8,29.85,West,264,0.0,5.0,84,0.00,,,0.00,0,Wunderground v.1.15,2013-04-04 12:47:00,
2013-04-04 05:52:00,50.5,45.8,29.85,NW,313,2.0,2.0,84,0.00,,,0.00,0,Wunderground v.1.15,2013-04-04 12:52:00,
2013-04-04 05:57:00,50.4,45.7,29.85,NNW,329,1.0,2.0,84,0.00,,,0.00,0,Wunderground v.1.15,2013-04-04 12:57:00,
2013-04-04 06:02:00,50.3,46.0,29.85,NNW,329,0.0,1.0,85,0.00,,,0.00,0,Wunderground v.1.15,2013-04-04 13:02:00,
2013-04-04 06:07:00,50.4,46.1,29.84,NNW,339,1.0,2.0,85,0.00,,,0.00,0,Wunderground v.1.15,2013-04-04 13:07:00,
2013-04-04 06:12:00,50.4,46.1,29.84,NNW,342,0.0,1.0,85,0.00,,,0.00,0,Wunderground v.1.15,2013-04-04 13:12:00,
2013-04-04 06:17:00,50.4,46.1,29.84,NNW,342,0.0,2.0,85,0.00,,,0.00,0,Wunderground v.1.15,2013-04-04 13:17:00,
2013-04-04 06:22:00,50.4,46.1,29.84,NNW,342,0.0,1.0,85,0.00,,,0.00,0,Wunderground v.1.15,2013-04-04 13:22:00,
2013-04-04 06:27:00,50.5,46.2,29.84,NNW,342,0.0,2.0,85,0.00,,,0.00,0,Wunderground v.1.15,2013-04-04 13:27:00,
2013-04-04 06:32:00,50.4,46.1,29.84,NNW,327,2.0,2.0,85,0.00,,,0.00,0,Wunderground v.1.15,2013-04-04 13:32:00,
2013-04-04 06:37:00,50.4,46.1,29.83,NNW,327,0.0,2.0,85,0.00,,,0.00,0,Wunderground v.1.15,2013-04-04 13:37:00,
2013-04-04 06:42:00,50.5,46.2,29.83,NNW,329,0.0,1.0,85,0.00,,,0.00,0,Wunderground v.1.15,2013-04-04 13:42:00,
2013-04-04 06:47:00,50.7,46.4,29.83,NNW,329,0.0,1.0,85,0.00,,,0.00,0,Wunderground v.1.15,2013-04-04 13:47:00,
2013-04-04 06:52:00,50.8,46.8,29.83,NNW,329,0.0,0.0,86,0.00,,,0.00,0,Wunderground v.1.15,2013-04-04 13:52:00,
2013-04-04 06:57:00,50.8,46.8,29.82,NNW,329,0.0,1.0,86,0.00,,,0.00,7,Wunderground v.1.15,2013-04-04 13:57:00,
2013-04-04 07:02:00,50.7,46.7,29.82,NNW,329,0.0,0.0,86,0.00,,,0.00,9,Wunderground v.1.15,2013-04-04 14:02:00,
2013-04-04 07:07:00,50.8,46.8,29.82,NNW,329,0.0,0.0,86,0.00,,,0.00,9,Wunderground v.1.15,2013-04-04 14:07:00,
2013-04-04 07:13:00,50.8,46.8,29.82,NNW,329,0.0,1.0,86,0.00,,,0.00,9,Wunderground v.1.15,2013-04-04 14:13:00,
2013-04-04 07:18:00,50.8,46.8,29.82,NNW,329,0.0,1.0,86,0.00,,,0.00,11,Wunderground v.1.15,2013-04-04 14:18:00,
2013-04-04 07:23:00,50.8,47.1,29.82,NNW,329,0.0,1.0,87,0.00,,,0.00,11,Wunderground v.1.15,2013-04-04 14:23:00,
2013-04-04 07:28:00,50.9,47.5,29.81,NNW,329,0.0,1.0,88,0.00,,,0.00,12,Wunderground v.1.15,2013-04-04 14:28:00,
2013-04-04 07:33:00,50.9,47.5,29.81,NNW,329,0.0,1.0,88,0.00,,,0.00,16,Wunderground v.1.15,2013-04-04 14:33:00,
2013-04-04 07:38:00,50.9,47.8,29.80,NNW,329,2.0,2.0,89,0.00,,,0.01,23,Wunderground v.1.15,2013-04-04 14:38:00,
2013-04-04 07:43:00,50.7,47.6,29.80,NNW,331,0.0,2.0,89,0.00,,,0.01,28,Wunderground v.1.15,2013-04-04 14:43:00,
2013-04-04 07:48:00,50.8,47.7,29.79,NNW,335,1.0,3.0,89,0.00,,,0.01,33,Wunderground v.1.15,2013-04-04 14:48:00,
2013-04-04 07:53:00,50.8,48.0,29.79,NNW,333,0.0,2.0,90,0.00,,,0.01,42,Wunderground v.1.15,2013-04-04 14:53:00,
2013-04-04 07:58:00,50.8,48.0,29.79,NNW,333,0.0,2.0,90,0.00,,,0.01,46,Wunderground v.1.15,2013-04-04 14:58:00,
2013-04-04 08:03:00,51.0,48.2,29.79,NNW,333,0.0,2.0,90,0.00,,,0.01,49,Wunderground v.1.15,2013-04-04 15:03:00,
2013-04-04 08:08:00,51.0,47.9,29.80,NNE,17,2.0,3.0,89,0.00,,,0.01,49,Wunderground v.1.15,2013-04-04 15:08:00,
2013-04-04 08:13:00,51.2,48.1,29.80,NNE,21,1.0,2.0,89,0.00,,,0.01,42,Wunderground v.1.15,2013-04-04 15:13:00,
2013-04-04 08:18:00,51.2,47.8,29.79,NE,37,1.0,4.0,88,0.00,,,0.01,44,Wunderground v.1.15,2013-04-04 15:18:00,
2013-04-04 08:23:00,51.1,48.0,29.79,NE,51,0.0,2.0,89,0.00,,,0.01,53,Wunderground v.1.15,2013-04-04 15:23:00,
2013-04-04 08:28:00,51.1,48.0,29.78,ENE,59,2.0,2.0,89,0.00,,,0.01,58,Wunderground v.1.15,2013-04-04 15:28:00,
2013-04-04 08:33:00,51.1,48.0,29.78,NE,50,2.0,4.0,89,0.00,,,0.01,69,Wunderground v.1.15,2013-04-04 15:33:00,
2013-04-04 08:38:00,51.0,47.9,29.77,ENE,69,3.0,5.0,89,0.00,,,0.01,84,Wunderground v.1.15,2013-04-04 15:38:00,
2013-04-04 08:43:00,51.1,48.0,29.77,NE,47,0.0,3.0,89,0.00,,,0.01,83,Wunderground v.1.15,2013-04-04 15:43:00,
2013-04-04 08:48:00,51.3,48.2,29.77,NE,47,1.0,3.0,89,0.00,,,0.01,70,Wunderground v.1.15,2013-04-04 15:48:00,
2013-04-04 08:53:00,51.4,48.3,29.77,NE,46,1.0,3.0,89,0.00,,,0.01,53,Wunderground v.1.15,2013-04-04 15:53:00,
2013-04-04 08:58:00,51.4,48.3,29.77,NE,46,1.0,3.0,89,0.00,,,0.01,51,Wunderground v.1.15,2013-04-04 15:58:00,
2013-04-04 09:03:00,51.7,48.3,29.77,NE,46,2.0,2.0,88,0.00,,,0.01,46,Wunderground v.1.15,2013-04-04 16:03:00,
2013-04-04 09:08:00,51.8,48.7,29.76,NE,49,1.0,3.0,89,0.00,,,0.01,53,Wunderground v.1.15,2013-04-04 16:08:00,
2013-04-04 09:13:00,51.8,48.1,29.76,ESE,111,2.0,6.0,87,0.00,,,0.01,69,Wunderground v.1.15,2013-04-04 16:13:00,
2013-04-04 09:18:00,52.3,48.9,29.76,ESE,111,2.0,6.0,88,0.00,,,0.01,77,Wunderground v.1.15,2013-04-04 16:18:00,
2013-04-04 09:23:00,52.4,48.6,29.76,ESE,115,0.0,2.0,87,0.00,,,0.01,83,Wunderground v.1.15,2013-04-04 16:23:00,
2013-04-04 09:28:00,52.8,49.0,29.76,ESE,115,0.0,2.0,87,0.00,,,0.01,77,Wunderground v.1.15,2013-04-04 16:28:00,
2013-04-04 09:33:00,52.7,48.9,29.76,ESE,115,0.0,1.0,87,0.00,,,0.01,67,Wunderground v.1.15,2013-04-04 16:33:00,
2013-04-04 09:38:00,52.7,48.9,29.76,ESE,115,0.0,2.0,87,0.00,,,0.01,65,Wunderground v.1.15,2013-04-04 16:38:00,
2013-04-04 09:43:00,52.8,49.0,29.76,ESE,115,0.0,2.0,87,0.00,,,0.01,74,Wunderground v.1.15,2013-04-04 16:43:00,
2013-04-04 09:48:00,52.9,49.1,29.75,ESE,107,2.0,2.0,87,0.00,,,0.01,77,Wunderground v.1.15,2013-04-04 16:48:00,
2013-04-04 09:53:00,52.9,48.8,29.75,East,100,2.0,3.0,86,0.00,,,0.01,77,Wunderground v.1.15,2013-04-04 16:53:00,
2013-04-04 09:58:00,53.0,48.9,29.75,ESE,107,0.0,3.0,86,0.00,,,0.01,67,Wunderground v.1.15,2013-04-04 16:58:00,
2013-04-04 10:03:00,53.0,49.2,29.75,ESE,106,3.0,3.0,87,0.00,,,0.01,65,Wunderground v.1.15,2013-04-04 17:03:00,
2013-04-04 10:08:00,52.9,49.4,29.74,ESE,104,0.0,3.0,88,0.00,,,0.01,81,Wunderground v.1.15,2013-04-04 17:08:00,
2013-04-04 10:13:00,53.1,49.9,29.74,ESE,104,1.0,2.0,89,0.00,,,0.02,79,Wunderground v.1.15,2013-04-04 17:13:00,
2013-04-04 10:18:00,53.0,49.5,29.74,ESE,112,1.0,2.0,88,0.00,,,0.02,81,Wunderground v.1.15,2013-04-04 17:18:00,
2013-04-04 10:23:00,53.0,49.8,29.74,SE,132,0.0,3.0,89,0.00,,,0.02,83,Wunderground v.1.15,2013-04-04 17:23:00,
2013-04-04 10:28:00,53.2,50.0,29.74,SE,132,0.0,3.0,89,0.00,,,0.02,83,Wunderground v.1.15,2013-04-04 17:28:00,
2013-04-04 10:33:00,53.3,49.8,29.74,West,271,1.0,4.0,88,0.00,,,0.02,93,Wunderground v.1.15,2013-04-04 17:33:00,
2013-04-04 10:38:00,53.2,50.0,29.73,West,271,0.0,4.0,89,0.00,,,0.02,121,Wunderground v.1.15,2013-04-04 17:38:00,
2013-04-04 10:43:00,53.4,50.2,29.74,West,275,0.0,3.0,89,0.00,,,0.02,114,Wunderground v.1.15,2013-04-04 17:43:00,
2013-04-04 10:48:00,53.7,50.8,29.73,West,267,0.0,3.0,90,0.00,,,0.02,130,Wunderground v.1.15,2013-04-04 17:48:00,
2013-04-04 10:53:00,53.9,50.7,29.74,West,263,0.0,2.0,89,0.00,,,0.03,121,Wunderground v.1.15,2013-04-04 17:53:00,
2013-04-04 10:58:00,54.1,50.6,29.73,WNW,283,0.0,2.0,88,0.00,,,0.03,111,Wunderground v.1.15,2013-04-04 17:58:00,
2013-04-04 11:03:00,54.0,50.5,29.74,NNW,337,0.0,2.0,88,0.00,,,0.03,102,Wunderground v.1.15,2013-04-04 18:03:00,
2013-04-04 11:08:00,53.9,50.4,29.74,North,360,1.0,2.0,88,0.00,,,0.03,109,Wunderground v.1.15,2013-04-04 18:08:00,
2013-04-04 11:13:00,53.8,50.3,29.73,ENE,62,1.0,3.0,88,0.00,,,0.03,118,Wunderground v.1.15,2013-04-04 18:13:00,
2013-04-04 11:18:00,53.8,50.6,29.73,North,355,2.0,4.0,89,0.00,,,0.03,111,Wunderground v.1.15,2013-04-04 18:18:00,
2013-04-04 11:23:00,53.9,50.7,29.73,NE,37,2.0,4.0,89,0.00,,,0.03,109,Wunderground v.1.15,2013-04-04 18:23:00,
2013-04-04 11:28:00,53.9,50.7,29.73,NE,40,0.0,4.0,89,0.00,,,0.03,97,Wunderground v.1.15,2013-04-04 18:28:00,
2013-04-04 11:33:00,53.9,50.7,29.73,NE,40,0.0,2.0,89,0.00,,,0.03,95,Wunderground v.1.15,2013-04-04 18:33:00,
2013-04-04 11:38:00,53.9,50.7,29.73,NE,40,0.0,2.0,89,0.00,,,0.03,98,Wunderground v.1.15,2013-04-04 18:38:00,
2013-04-04 11:43:00,53.8,50.6,29.72,ENE,69,1.0,2.0,89,0.00,,,0.03,105,Wunderground v.1.15,2013-04-04 18:43:00,
2013-04-04 11:48:00,54.2,51.3,29.72,ENE,69,1.0,2.0,90,0.00,,,0.03,120,Wunderground v.1.15,2013-04-04 18:48:00,
2013-04-04 11:53:00,54.1,51.2,29.72,ENE,69,0.0,2.0,90,0.00,,,0.04,151,Wunderground v.1.15,2013-04-04 18:53:00,
2013-04-04 11:58:00,54.4,51.5,29.72,ENE,69,0.0,2.0,90,0.00,,,0.04,148,Wunderground v.1.15,2013-04-04 18:58:00,
2013-04-04 12:03:00,54.2,51.0,29.72,ENE,69,1.0,2.0,89,0.00,,,0.04,134,Wunderground v.1.15,2013-04-04 19:03:00,
2013-04-04 12:08:00,54.4,51.2,29.72,ENE,69,0.0,2.0,89,0.00,,,0.04,134,Wunderground v.1.15,2013-04-04 19:08:00,
2013-04-04 12:13:00,54.8,52.2,29.72,ENE,69,0.0,1.0,91,0.00,,,0.04,156,Wunderground v.1.15,2013-04-04 19:13:00,
2013-04-04 12:18:00,54.2,51.6,29.71,NW,325,1.0,5.0,91,0.00,,,0.04,188,Wunderground v.1.15,2013-04-04 19:18:00,
2013-04-04 12:23:00,54.1,51.8,29.71,NW,316,1.0,3.0,92,0.00,,,0.04,183,Wunderground v.1.15,2013-04-04 19:23:00,
2013-04-04 12:28:00,54.3,52.0,29.71,West,279,2.0,3.0,92,0.00,,,0.04,193,Wunderground v.1.15,2013-04-04 19:28:00,
2013-04-04 12:33:00,53.6,51.3,29.71,West,273,3.0,3.0,92,0.00,,,0.04,188,Wunderground v.1.15,2013-04-04 19:33:00,
2013-04-04 12:38:00,53.2,50.9,29.71,West,263,2.0,4.0,92,0.00,,,0.05,183,Wunderground v.1.15,2013-04-04 19:38:00,
2013-04-04 12:43:00,53.3,51.3,29.71,West,263,2.0,3.0,93,0.00,,,0.05,188,Wunderground v.1.15,2013-04-04 19:43:00,
2013-04-04 12:48:00,53.1,51.1,29.71,West,263,2.0,3.0,93,0.00,,,0.05,181,Wunderground v.1.15,2013-04-04 19:48:00,
2013-04-04 12:53:00,52.9,50.9,29.70,West,263,1.0,2.0,93,0.00,,,0.05,193,Wunderground v.1.15,2013-04-04 19:53:00,
2013-04-04 12:58:00,53.7,52.0,29.71,WNW,283,2.0,3.0,94,0.00,,,0.05,195,Wunderground v.1.15,2013-04-04 19:58:00,
2013-04-04 13:03:00,54.4,52.7,29.70,NW,304,0.0,2.0,94,0.00,,,0.05,176,Wunderground v.1.15,2013-04-04 20:03:00,
2013-04-04 13:08:00,54.6,52.3,29.70,WNW,289,1.0,3.0,92,0.00,,,0.06,162,Wunderground v.1.15,2013-04-04 20:08:00,
2013-04-04 13:13:00,54.9,52.6,29.70,WNW,288,0.0,1.0,92,0.00,,,0.06,153,Wunderground v.1.15,2013-04-04 20:13:00,
2013-04-04 13:18:00,55.4,53.4,29.70,WNW,288,1.0,2.0,93,0.00,,,0.06,148,Wunderground v.1.15,2013-04-04 20:18:00,
2013-04-04 13:23:00,55.1,52.2,29.69,WNW,288,0.0,2.0,90,0.04,,,0.07,135,Wunderground v.1.15,2013-04-04 20:23:00,
2013-04-04 13:28:00,54.8,52.2,29.69,WNW,288,1.0,2.0,91,0.04,,,0.07,127,Wunderground v.1.15,2013-04-04 20:28:00,
2013-04-04 13:33:00,54.5,51.6,29.69,WNW,288,1.0,3.0,90,0.05,,,0.08,123,Wunderground v.1.15,2013-04-04 20:33:00,
2013-04-04 13:38:00,54.3,51.1,29.69,WNW,286,1.0,4.0,89,0.05,,,0.08,139,Wunderground v.1.15,2013-04-04 20:38:00,
2013-04-04 13:43:00,54.3,51.1,29.69,WNW,286,0.0,3.0,89,0.05,,,0.09,132,Wunderground v.1.15,2013-04-04 20:43:00,
2013-04-04 13:48:00,54.8,52.2,29.69,WNW,286,0.0,3.0,91,0.05,,,0.09,137,Wunderground v.1.15,2013-04-04 20:48:00,
2013-04-04 13:53:00,54.7,51.8,29.69,WNW,286,1.0,2.0,90,0.05,,,0.09,137,Wunderground v.1.15,2013-04-04 20:53:00,
2013-04-04 13:58:00,54.6,52.0,29.69,WNW,286,1.0,3.0,91,0.04,,,0.10,105,Wunderground v.1.15,2013-04-04 20:58:00,
2013-04-04 14:03:00,54.3,51.4,29.69,West,260,5.0,6.0,90,0.04,,,0.10,104,Wunderground v.1.15,2013-04-04 21:03:00,
2013-04-04 14:08:00,53.7,51.4,29.69,West,260,3.0,6.0,92,0.04,,,0.10,93,Wunderground v.1.15,2013-04-04 21:08:00,
2013-04-04 14:13:00,53.8,51.8,29.69,NW,323,2.0,5.0,93,0.04,,,0.10,88,Wunderground v.1.15,2013-04-04 21:13:00,
2013-04-04 14:18:00,54.0,52.3,29.69,NW,323,0.0,5.0,94,0.00,,,0.11,77,Wunderground v.1.15,2013-04-04 21:18:00,
2013-04-04 14:23:00,53.9,51.9,29.69,WNW,297,1.0,3.0,93,0.00,,,0.11,72,Wunderground v.1.15,2013-04-04 21:23:00,
2013-04-04 14:28:00,53.0,51.0,29.69,WSW,256,4.0,4.0,93,0.00,,,0.11,51,Wunderground v.1.15,2013-04-04 21:28:00,
2013-04-04 14:33:00,52.5,50.5,29.69,West,271,3.0,4.0,93,0.04,,,0.12,70,Wunderground v.1.15,2013-04-04 21:33:00,
2013-04-04 14:38:00,52.3,50.3,29.69,West,261,2.0,5.0,93,0.04,,,0.12,88,Wunderground v.1.15,2013-04-04 21:38:00,
2013-04-04 14:43:00,52.2,50.5,29.69,West,261,2.0,5.0,94,0.04,,,0.12,81,Wunderground v.1.15,2013-04-04 21:43:00,
2013-04-04 14:49:00,52.0,50.3,29.69,WSW,257,2.0,5.0,94,0.00,,,0.12,84,Wunderground v.1.15,2013-04-04 21:49:00,
2013-04-04 14:54:00,51.8,50.1,29.69,West,265,4.0,4.0,94,0.00,,,0.13,104,Wunderground v.1.15,2013-04-04 21:54:00,
2013-04-04 15:00:00,51.5,49.8,29.69,West,273,3.0,4.0,94,0.00,,,0.13,97,Wunderground v.1.15,2013-04-04 22:00:00,
2013-04-04 15:05:00,51.4,49.7,29.69,West,264,2.0,4.0,94,0.00,,,0.13,77,Wunderground v.1.15,2013-04-04 22:05:00,
2013-04-04 15:10:00,51.4,49.7,29.69,WSW,258,4.0,5.0,94,0.00,,,0.13,90,Wunderground v.1.15,2013-04-04 22:10:00,
2013-04-04 15:15:00,51.3,49.6,29.69,WSW,247,0.0,5.0,94,0.00,,,0.14,104,Wunderground v.1.15,2013-04-04 22:15:00,
2013-04-04 15:20:00,51.3,49.6,29.69,West,263,3.0,5.0,94,0.00,,,0.14,104,Wunderground v.1.15,2013-04-04 22:20:00,
2013-04-04 15:25:00,51.3,49.6,29.69,West,262,2.0,5.0,94,0.00,,,0.14,84,Wunderground v.1.15,2013-04-04 22:25:00,
2013-04-04 15:30:00,51.4,50.0,29.69,West,261,0.0,5.0,95,0.04,,,0.15,91,Wunderground v.1.15,2013-04-04 22:30:00,
2013-04-04 15:35:00,51.7,50.3,29.69,West,261,0.0,2.0,95,0.04,,,0.15,95,Wunderground v.1.15,2013-04-04 22:35:00,
2013-04-04 15:40:00,51.7,50.3,29.68,West,261,0.0,2.0,95,0.04,,,0.15,90,Wunderground v.1.15,2013-04-04 22:40:00,
2013-04-04 15:45:00,51.9,50.5,29.68,West,265,0.0,2.0,95,0.05,,,0.16,93,Wunderground v.1.15,2013-04-04 22:45:00,
2013-04-04 15:50:00,52.1,50.4,29.68,WNW,289,0.0,2.0,94,0.05,,,0.16,100,Wunderground v.1.15,2013-04-04 22:50:00,
2013-04-04 15:55:00,52.8,51.4,29.68,WNW,289,1.0,2.0,95,0.05,,,0.17,107,Wunderground v.1.15,2013-04-04 22:55:00,
2013-04-04 16:00:00,52.7,51.0,29.68,WNW,289,2.0,3.0,94,0.05,,,0.17,118,Wunderground v.1.15,2013-04-04 23:00:00,
2013-04-04 16:05:00,52.7,51.3,29.68,WNW,288,1.0,3.0,95,0.05,,,0.17,134,Wunderground v.1.15,2013-04-04 23:05:00,
2013-04-04 16:10:00,52.8,51.4,29.67,WNW,288,1.0,3.0,95,0.04,,,0.18,118,Wunderground v.1.15,2013-04-04 23:10:00,
2013-04-04 16:15:00,53.2,51.8,29.67,WNW,288,1.0,1.0,95,0.04,,,0.18,113,Wunderground v.1.15,2013-04-04 23:15:00,
2013-04-04 16:20:00,53.6,52.2,29.67,WNW,288,1.0,1.0,95,0.06,,,0.19,105,Wunderground v.1.15,2013-04-04 23:20:00,
2013-04-04 16:25:00,53.6,52.2,29.67,West,279,1.0,2.0,95,0.06,,,0.19,97,Wunderground v.1.15,2013-04-04 23:25:00,
2013-04-04 16:30:00,53.9,52.5,29.66,West,279,1.0,1.0,95,0.06,,,0.20,60,Wunderground v.1.15,2013-04-04 23:30:00,
2013-04-04 16:35:00,53.9,52.5,29.66,West,279,0.0,2.0,95,0.33,,,0.22,33,Wunderground v.1.15,2013-04-04 23:35:00,
2013-04-04 16:40:00,53.7,52.0,29.66,WSW,257,1.0,1.0,94,0.19,,,0.23,42,Wunderground v.1.15,2013-04-04 23:40:00,
2013-04-04 16:45:00,53.8,52.4,29.66,WSW,255,0.0,3.0,95,0.07,,,0.23,40,Wunderground v.1.15,2013-04-04 23:45:00,
2013-04-04 16:50:00,53.9,52.5,29.66,WSW,254,3.0,3.0,95,0.16,,,0.25,32,Wunderground v.1.15,2013-04-04 23:50:00,
2013-04-04 16:55:00,53.7,52.3,29.66,WSW,254,2.0,3.0,95,0.17,,,0.26,21,Wunderground v.1.15,2013-04-04 23:55:00,
2013-04-04 17:00:00,53.6,52.2,29.66,WSW,256,3.0,4.0,95,0.10,,,0.27,21,Wunderground v.1.15,2013-04-05 00:00:00,
2013-04-04 17:05:00,53.6,52.2,29.66,WSW,245,1.0,3.0,95,0.09,,,0.27,23,Wunderground v.1.15,2013-04-05 00:05:00,
2013-04-04 17:10:00,53.6,52.2,29.66,SW,234,2.0,2.0,95,0.09,,,0.28,25,Wunderground v.1.15,2013-04-05 00:10:00,
2013-04-04 17:15:00,53.7,52.3,29.66,SW,216,3.0,3.0,95,0.06,,,0.28,28,Wunderground v.1.15,2013-04-05 00:15:00,
2013-04-04 17:20:00,53.8,52.7,29.66,WSW,249,0.0,2.0,96,0.06,,,0.29,30,Wunderground v.1.15,2013-04-05 00:20:00,
2013-04-04 17:25:00,53.9,52.5,29.66,WSW,247,2.0,2.0,95,0.06,,,0.29,26,Wunderground v.1.15,2013-04-05 00:25:00,
2013-04-04 17:30:00,54.0,52.9,29.66,SW,219,2.0,2.0,96,0.04,,,0.30,35,Wunderground v.1.15,2013-04-05 00:30:00,
2013-04-04 17:35:00,54.0,52.9,29.66,South,187,3.0,4.0,96,0.04,,,0.30,26,Wunderground v.1.15,2013-04-05 00:35:00,
2013-04-04 17:40:00,54.1,53.0,29.67,WSW,248,3.0,3.0,96,0.04,,,0.30,32,Wunderground v.1.15,2013-04-05 00:40:00,
2013-04-04 17:45:00,54.5,53.4,29.67,WSW,248,2.0,4.0,96,0.04,,,0.30,39,Wunderground v.1.15,2013-04-05 00:45:00,
2013-04-04 17:50:00,54.7,53.6,29.67,WSW,248,1.0,2.0,96,0.00,,,0.31,32,Wunderground v.1.15,2013-04-05 00:50:00,
2013-04-04 17:55:00,54.9,53.5,29.67,West,262,7.0,9.0,95,0.00,,,0.31,42,Wunderground v.1.15,2013-04-05 00:55:00,
2013-04-04 18:01:00,55.1,53.7,29.67,WSW,242,3.0,5.0,95,0.00,,,0.31,30,Wunderground v.1.15,2013-04-05 01:01:00,
2013-04-04 18:05:00,55.3,53.6,29.67,West,259,8.0,14.0,94,0.00,,,0.31,19,Wunderground v.1.15,2013-04-05 01:05:00,
2013-04-04 18:10:00,55.5,53.8,29.67,SW,227,10.0,11.0,94,0.00,,,0.32,12,Wunderground v.1.15,2013-04-05 01:10:00,
2013-04-04 18:15:00,55.7,53.7,29.67,WSW,256,10.0,14.0,93,0.00,,,0.32,12,Wunderground v.1.15,2013-04-05 01:15:00,
2013-04-04 18:20:00,55.8,53.8,29.67,WSW,243,9.0,11.0,93,0.00,,,0.32,14,Wunderground v.1.15,2013-04-05 01:20:00,
2013-04-04 18:25:00,56.0,53.4,29.67,WNW,284,20.0,29.0,91,0.00,,,0.32,11,Wunderground v.1.15,2013-04-05 01:25:00,
2013-04-04 18:30:00,56.0,53.4,29.68,West,270,14.0,17.0,91,0.00,,,0.32,11,Wunderground v.1.15,2013-04-05 01:30:00,
2013-04-04 18:35:00,56.0,53.4,29.68,WSW,252,12.0,21.0,91,0.00,,,0.32,16,Wunderground v.1.15,2013-04-05 01:35:00,
2013-04-04 18:40:00,56.1,53.2,29.68,WSW,254,6.0,11.0,90,0.00,,,0.32,25,Wunderground v.1.15,2013-04-05 01:40:00,
2013-04-04 18:45:00,56.2,53.0,29.68,West,273,7.0,14.0,89,0.00,,,0.32,33,Wunderground v.1.15,2013-04-05 01:45:00,
2013-04-04 18:50:00,56.6,53.1,29.68,West,270,21.0,21.0,88,0.00,,,0.32,25,Wunderground v.1.15,2013-04-05 01:50:00,
2013-04-04 18:55:00,57.0,52.9,29.68,West,269,17.0,23.0,86,0.00,,,0.32,35,Wunderground v.1.15,2013-04-05 01:55:00,
2013-04-04 19:00:00,57.2,52.7,29.68,SW,235,7.0,14.0,85,0.00,,,0.32,32,Wunderground v.1.15,2013-04-05 02:00:00,
2013-04-04 19:05:00,57.1,52.6,29.68,SW,234,10.0,16.0,85,0.00,,,0.32,25,Wunderground v.1.15,2013-04-05 02:05:00,
2013-04-04 19:10:00,57.3,52.5,29.69,West,275,6.0,16.0,84,0.00,,,0.32,23,Wunderground v.1.15,2013-04-05 02:10:00,
2013-04-04 19:15:00,57.4,52.6,29.69,SW,215,9.0,21.0,84,0.00,,,0.32,19,Wunderground v.1.15,2013-04-05 02:15:00,
2013-04-04 19:20:00,57.5,52.4,29.69,WSW,255,17.0,20.0,83,0.00,,,0.32,12,Wunderground v.1.15,2013-04-05 02:20:00,
2013-04-04 19:25:00,57.5,52.4,29.69,WSW,243,7.0,20.0,83,0.00,,,0.32,7,Wunderground v.1.15,2013-04-05 02:25:00,
2013-04-04 19:30:00,57.6,52.1,29.69,WSW,239,19.0,19.0,82,0.00,,,0.32,0,Wunderground v.1.15,2013-04-05 02:30:00,
2013-04-04 19:35:00,57.8,52.0,29.70,West,274,15.0,20.0,81,0.00,,,0.32,0,Wunderground v.1.15,2013-04-05 02:35:00,
2013-04-04 19:40:00,57.9,52.1,29.70,SW,218,7.0,12.0,81,0.00,,,0.32,0,Wunderground v.1.15,2013-04-05 02:40:00,
2013-04-04 19:45:00,57.8,52.0,29.70,WSW,249,4.0,13.0,81,0.00,,,0.32,0,Wunderground v.1.15,2013-04-05 02:45:00,
2013-04-04 19:50:00,57.7,51.9,29.70,West,268,7.0,9.0,81,0.00,,,0.32,0,Wunderground v.1.15,2013-04-05 02:50:00,
2013-04-04 19:55:00,57.5,51.7,29.70,WSW,250,7.0,15.0,81,0.00,,,0.32,0,Wunderground v.1.15,2013-04-05 02:55:00,
2013-04-04 20:00:00,57.4,51.9,29.70,West,269,8.0,8.0,82,0.00,,,0.32,0,Wunderground v.1.15,2013-04-05 03:00:00,
2013-04-04 20:05:00,57.2,51.8,29.70,West,269,4.0,13.0,82,0.00,,,0.32,0,Wunderground v.1.15,2013-04-05 03:05:00,
2013-04-04 20:10:00,57.1,52.0,29.70,WSW,241,5.0,7.0,83,0.00,,,0.32,0,Wunderground v.1.15,2013-04-05 03:10:00,
2013-04-04 20:15:00,56.9,51.8,29.71,WSW,243,5.0,12.0,83,0.00,,,0.32,0,Wunderground v.1.15,2013-04-05 03:15:00,
2013-04-04 20:20:00,56.9,51.8,29.71,West,271,6.0,10.0,83,0.00,,,0.32,0,Wunderground v.1.15,2013-04-05 03:20:00,
2013-04-04 20:25:00,56.9,51.5,29.71,West,281,12.0,17.0,82,0.00,,,0.32,0,Wunderground v.1.15,2013-04-05 03:25:00,
2013-04-04 20:30:00,56.9,51.5,29.71,West,269,10.0,11.0,82,0.00,,,0.32,0,Wunderground v.1.15,2013-04-05 03:30:00,
2013-04-04 20:35:00,57.0,51.6,29.72,West,265,11.0,22.0,82,0.00,,,0.32,0,Wunderground v.1.15,2013-04-05 03:35:00,
2013-04-04 20:40:00,57.0,51.6,29.72,WSW,258,13.0,15.0,82,0.00,,,0.32,0,Wunderground v.1.15,2013-04-05 03:40:00,
2013-04-04 20:45:00,57.0,51.6,29.72,WNW,284,13.0,20.0,82,0.00,,,0.32,0,Wunderground v.1.15,2013-04-05 03:45:00,
2013-04-04 20:50:00,57.0,51.6,29.72,West,272,10.0,14.0,82,0.00,,,0.32,0,Wunderground v.1.15,2013-04-05 03:50:00,
2013-04-04 20:55:00,57.0,51.6,29.72,West,269,10.0,17.0,82,0.00,,,0.32,0,Wunderground v.1.15,2013-04-05 03:55:00,
2013-04-04 21:00:00,56.9,51.5,29.72,SW,224,11.0,17.0,82,0.00,,,0.32,0,Wunderground v.1.15,2013-04-05 04:00:00,
2013-04-04 21:05:00,56.9,51.8,29.72,West,270,12.0,17.0,83,0.00,,,0.32,0,Wunderground v.1.15,2013-04-05 04:05:00,
2013-04-04 21:10:00,57.0,51.6,29.73,WSW,255,6.0,17.0,82,0.00,,,0.32,0,Wunderground v.1.15,2013-04-05 04:10:00,
2013-04-04 21:15:00,57.0,51.2,29.72,SW,234,10.0,25.0,81,0.00,,,0.32,0,Wunderground v.1.15,2013-04-05 04:15:00,
2013-04-04 21:20:00,57.1,51.0,29.73,SSW,200,7.0,25.0,80,0.00,,,0.32,0,Wunderground v.1.15,2013-04-05 04:20:00,
2013-04-04 21:25:00,57.1,51.0,29.73,West,271,9.0,15.0,80,0.00,,,0.32,0,Wunderground v.1.15,2013-04-05 04:25:00,
2013-04-04 21:30:00,57.1,51.0,29.74,West,268,8.0,17.0,80,0.00,,,0.32,0,Wunderground v.1.15,2013-04-05 04:30:00,
2013-04-04 21:35:00,57.1,51.0,29.73,West,263,9.0,14.0,80,0.00,,,0.32,0,Wunderground v.1.15,2013-04-05 04:35:00,
2013-04-04 21:40:00,57.0,50.9,29.73,West,265,9.0,17.0,80,0.00,,,0.32,0,Wunderground v.1.15,2013-04-05 04:40:00,
2013-04-04 21:45:00,56.9,50.8,29.73,NW,311,9.0,19.0,80,0.00,,,0.32,0,Wunderground v.1.15,2013-04-05 04:45:00,
2013-04-04 21:50:00,56.8,51.0,29.73,WSW,252,8.0,19.0,81,0.00,,,0.32,0,Wunderground v.1.15,2013-04-05 04:50:00,
2013-04-04 21:55:00,56.6,51.2,29.73,WSW,253,7.0,13.0,82,0.00,,,0.32,0,Wunderground v.1.15,2013-04-05 04:55:00,
2013-04-04 22:00:00,56.3,51.2,29.73,WSW,257,7.0,11.0,83,0.00,,,0.32,0,Wunderground v.1.15,2013-04-05 05:00:00,
2013-04-04 22:05:00,56.2,51.1,29.73,SW,236,6.0,13.0,83,0.00,,,0.32,0,Wunderground v.1.15,2013-04-05 05:05:00,
2013-04-04 22:10:00,56.0,51.2,29.73,WNW,282,10.0,10.0,84,0.00,,,0.32,0,Wunderground v.1.15,2013-04-05 05:10:00,
2013-04-04 22:15:00,55.8,51.0,29.74,West,272,11.0,19.0,84,0.00,,,0.32,0,Wunderground v.1.15,2013-04-05 05:15:00,
2013-04-04 22:20:00,55.5,50.7,29.73,West,261,12.0,12.0,84,0.00,,,0.32,0,Wunderground v.1.15,2013-04-05 05:20:00,
2013-04-04 22:25:00,55.2,51.1,29.73,West,261,8.0,15.0,86,0.00,,,0.32,0,Wunderground v.1.15,2013-04-05 05:25:00,
2013-04-04 22:30:00,54.9,50.8,29.74,SW,231,8.0,8.0,86,0.00,,,0.32,0,Wunderground v.1.15,2013-04-05 05:30:00,
2013-04-04 22:35:00,54.8,51.0,29.74,West,264,9.0,11.0,87,0.00,,,0.32,0,Wunderground v.1.15,2013-04-05 05:35:00,
2013-04-04 22:40:00,54.6,50.8,29.74,WSW,244,5.0,7.0,87,0.00,,,0.32,0,Wunderground v.1.15,2013-04-05 05:40:00,
2013-04-04 22:45:00,54.5,51.0,29.73,SSW,211,4.0,18.0,88,0.00,,,0.32,0,Wunderground v.1.15,2013-04-05 05:45:00,
2013-04-04 22:50:00,54.4,50.9,29.73,West,279,10.0,18.0,88,0.00,,,0.32,0,Wunderground v.1.15,2013-04-05 05:50:00,
2013-04-04 22:55:00,54.5,51.0,29.73,West,275,6.0,10.0,88,0.00,,,0.32,0,Wunderground v.1.15,2013-04-05 05:55:00,
2013-04-04 23:00:00,54.6,51.1,29.74,WNW,291,4.0,10.0,88,0.00,,,0.32,0,Wunderground v.1.15,2013-04-05 06:00:00,
2013-04-04 23:05:00,54.6,51.1,29.73,WSW,255,3.0,9.0,88,0.00,,,0.32,0,Wunderground v.1.15,2013-04-05 06:05:00,
2013-04-04 23:10:00,54.6,51.1,29.74,SW,227,7.0,7.0,88,0.00,,,0.32,0,Wunderground v.1.15,2013-04-05 06:10:00,
2013-04-04 23:15:00,54.8,51.3,29.74,WSW,239,4.0,8.0,88,0.00,,,0.32,0,Wunderground v.1.15,2013-04-05 06:15:00,
2013-04-04 23:20:00,54.9,51.1,29.74,West,272,8.0,8.0,87,0.00,,,0.32,0,Wunderground v.1.15,2013-04-05 06:20:00,
2013-04-04 23:25:00,55.0,51.2,29.74,SSW,212,6.0,10.0,87,0.00,,,0.32,0,Wunderground v.1.15,2013-04-05 06:25:00,
2013-04-04 23:30:00,55.1,51.3,29.74,West,273,9.0,11.0,87,0.00,,,0.32,0,Wunderground v.1.15,2013-04-05 06:30:00,
2013-04-04 23:35:00,55.1,51.0,29.74,SW,227,8.0,14.0,86,0.00,,,0.32,0,Wunderground v.1.15,2013-04-05 06:35:00,
2013-04-04 23:40:00,55.2,51.1,29.74,West,275,7.0,14.0,86,0.00,,,0.32,0,Wunderground v.1.15,2013-04-05 06:40:00,
2013-04-04 23:45:00,55.3,51.2,29.74,SW,225,8.0,13.0,86,0.00,,,0.32,0,Wunderground v.1.15,2013-04-05 06:45:00,
2013-04-04 23:50:00,55.3,51.2,29.74,WSW,246,11.0,13.0,86,0.00,,,0.32,0,Wunderground v.1.15,2013-04-05 06:50:00,
2013-04-04 23:55:00,55.3,51.2,29.74,West,261,10.0,13.0,86,0.00,,,0.00,0,Wunderground v.1.15,2013-04-05 06:55:00,